Location: Marsån
(66.4167°N, 22.2833°E)
Time: 08:43:27
(UTC+00:00)

H-2A R/B - Pass Details

Date: 24 February 2024
Orbit: 567 x 640 km, 98.4° (Epoch: 20 April)

Event Time Altitude Azimuth Distance (km) Brightness Sun altitude
Rises 22:06:54 0° 21° (NNE) 2,940 6.3 -32.6°
Reaches altitude 10° 22:09:12 10° 26° (NNE) 2,017 5.3 -32.7°
Enters shadow 22:10:38 20° 33° (NNE) 1,462 4.4 -32.7°
